TimeCEST,TemperatureF,Dew PointF,Humidity,Sea Level PressureIn,VisibilityMPH,Wind Direction,Wind SpeedMPH,Gust SpeedMPH,PrecipitationIn,Events,Conditions,WindDirDegrees,DateUTC
12:00 AM,42.8,41.0,93,29.95,-9999.0,Variable,1.2,-,N/A,,Clear,0,2012-10-15 22:00:00
12:30 AM,42.8,41.0,93,29.95,-9999.0,NE,2.3,-,N/A,,Clear,50,2012-10-15 22:30:00
1:00 AM,44.6,42.8,93,29.95,-9999.0,Calm,Calm,-,N/A,,Clear,0,2012-10-15 23:00:00
1:30 AM,44.6,42.8,93,29.95,-9999.0,NE,1.2,-,N/A,,Clear,50,2012-10-15 23:30:00
2:00 AM,46.4,42.8,87,29.95,6.2,Variable,2.3,-,N/A,,Partly Cloudy,0,2012-10-16 00:00:00
2:30 AM,48.2,41.0,76,29.95,6.2,SW,5.8,-,N/A,,Partly Cloudy,230,2012-10-16 00:30:00
3:00 AM,51.8,41.0,67,29.95,6.2,Variable,2.3,-,N/A,,Partly Cloudy,0,2012-10-16 01:00:00
3:30 AM,53.6,41.0,62,29.95,6.2,WSW,6.9,-,N/A,,Partly Cloudy,250,2012-10-16 01:30:00
4:00 AM,53.6,41.0,62,29.95,6.2,SW,8.1,-,N/A,,Scattered Clouds,220,2012-10-16 02:00:00
4:30 AM,53.6,41.0,62,29.92,6.2,WSW,8.1,-,N/A,,Scattered Clouds,240,2012-10-16 02:30:00
5:00 AM,53.6,41.0,62,29.95,6.2,WSW,4.6,-,N/A,,Scattered Clouds,250,2012-10-16 03:00:00
5:30 AM,53.6,41.0,62,29.92,6.2,SW,10.4,-,N/A,,Scattered Clouds,220,2012-10-16 03:30:00
6:00 AM,53.6,41.0,62,29.92,6.2,SSW,5.8,-,N/A,,Scattered Clouds,210,2012-10-16 04:00:00
6:30 AM,53.6,42.8,67,29.92,6.2,SW,6.9,-,N/A,,Scattered Clouds,230,2012-10-16 04:30:00
7:00 AM,53.6,42.8,67,29.95,6.2,WSW,8.1,-,N/A,,Scattered Clouds,250,2012-10-16 05:00:00
7:30 AM,53.6,42.8,67,29.95,6.2,SW,5.8,-,N/A,,Scattered Clouds,230,2012-10-16 05:30:00
8:00 AM,53.6,42.8,67,29.92,6.2,SSW,1.2,-,N/A,,Scattered Clouds,200,2012-10-16 06:00:00
8:30 AM,53.6,42.8,67,29.95,6.2,Variable,2.3,-,N/A,,Mostly Cloudy,0,2012-10-16 06:30:00
9:00 AM,53.6,44.6,72,29.95,6.2,WSW,4.6,-,N/A,,Mostly Cloudy,250,2012-10-16 07:00:00
9:30 AM,50.0,46.4,87,29.98,3.7,SW,9.2,-,N/A,Rain,Rain,220,2012-10-16 07:30:00
10:00 AM,50.0,46.4,87,29.95,5.0,SSW,5.8,-,N/A,Rain,Light Rain,200,2012-10-16 08:00:00
10:30 AM,50.0,48.2,94,29.98,5.0,Variable,1.2,-,N/A,,Mostly Cloudy,0,2012-10-16 08:30:00
11:00 AM,51.8,48.2,88,29.98,6.2,SW,3.5,-,N/A,,Scattered Clouds,220,2012-10-16 09:00:00
11:30 AM,-9999,-9999,N/A,29.98,6.2,SW,9.2,-,N/A,,Scattered Clouds,230,2012-10-16 09:30:00
12:00 PM,53.6,48.2,82,29.98,6.2,SSW,9.2,-,N/A,,Scattered Clouds,210,2012-10-16 10:00:00
12:30 PM,55.4,46.4,72,29.98,6.2,SW,9.2,-,N/A,,Scattered Clouds,220,2012-10-16 10:30:00
1:00 PM,57.2,46.4,67,29.95,6.2,SW,10.4,-,N/A,,Scattered Clouds,220,2012-10-16 11:00:00
1:30 PM,59.0,46.4,63,29.95,6.2,SW,13.8,-,N/A,,Scattered Clouds,220,2012-10-16 11:30:00
2:00 PM,60.8,46.4,59,29.95,6.2,SW,13.8,-,N/A,,Partly Cloudy,230,2012-10-16 12:00:00
2:30 PM,64.4,44.6,49,29.92,6.2,SSW,11.5,-,N/A,,Partly Cloudy,210,2012-10-16 12:30:00
3:00 PM,64.4,44.6,49,29.89,6.2,SW,10.4,-,N/A,,Partly Cloudy,220,2012-10-16 13:00:00
3:30 PM,64.4,42.8,45,29.89,6.2,SW,12.7,-,N/A,,Partly Cloudy,220,2012-10-16 13:30:00
4:00 PM,66.2,41.0,40,29.89,6.2,SW,3.5,-,N/A,,Partly Cloudy,220,2012-10-16 14:00:00
4:30 PM,64.4,44.6,49,29.89,6.2,SSW,12.7,-,N/A,,Partly Cloudy,210,2012-10-16 14:30:00
5:00 PM,64.4,41.0,42,29.86,6.2,SSW,13.8,-,N/A,,Partly Cloudy,210,2012-10-16 15:00:00
5:30 PM,64.4,42.8,45,29.86,6.2,SW,17.3,-,N/A,,Partly Cloudy,220,2012-10-16 15:30:00
6:00 PM,62.6,44.6,52,29.86,6.2,SSW,10.4,-,N/A,,Partly Cloudy,200,2012-10-16 16:00:00
6:30 PM,60.8,44.6,55,29.86,6.2,South,11.5,-,N/A,,Partly Cloudy,180,2012-10-16 16:30:00
7:00 PM,60.8,42.8,52,29.83,-9999.0,SSE,12.7,-,N/A,,Clear,160,2012-10-16 17:00:00
7:30 PM,59.0,44.6,59,29.83,-9999.0,SSE,12.7,-,N/A,,Clear,160,2012-10-16 17:30:00
8:00 PM,59.0,42.8,55,29.83,-9999.0,SSE,9.2,-,N/A,,Clear,160,2012-10-16 18:00:00
8:30 PM,59.0,42.8,55,29.83,-9999.0,SSE,8.1,-,N/A,,Clear,160,2012-10-16 18:30:00
9:00 PM,59.0,42.8,55,29.83,-9999.0,Calm,Calm,-,N/A,,Clear,0,2012-10-16 19:00:00
10:00 PM,59.0,44.6,59,29.80,-9999.0,South,4.6,-,N/A,,Clear,190,2012-10-16 20:00:00
10:30 PM,59.0,42.8,55,29.83,-9999.0,SSE,11.5,-,N/A,,Clear,160,2012-10-16 20:30:00
11:00 PM,57.2,42.8,59,29.83,-9999.0,SSE,10.4,-,N/A,,Clear,160,2012-10-16 21:00:00
11:30 PM,57.2,42.8,59,29.83,-9999.0,SW,8.1,-,N/A,,Clear,230,2012-10-16 21:30:00